{"data":{"norad_id":57263,"epoch":"2026-09-20T07:44:42.736704Z","epoch_age_seconds":139488,"freshness":"FRESH","line1":"1 57263U 23094AX  26263.32271686  .00000013  00000+0  99975-5 0  9992","line2":"2 57263  43.0022  11.4015 0001496 271.4421  88.6260 15.27575867176882","mean_motion":15.27575867,"eccentricity":0.0001496,"inclination_deg":43.0022,"raan_deg":11.4015,"arg_perigee_deg":271.4421,"mean_anomaly_deg":88.626,"bstar":9.9975e-6,"rev_number":17688,"period_min":94.267003761195,"perigee_km":482.03503646502,"apogee_km":484.08790704777,"semimajor_km":6861.1984717564,"source":"CELESTRAK","updated_at":"2026-09-21T09:00:33.593731Z"}}